Home > Weather > U.S.A. > Provo > Past weeks

Flag for U.S.A. Weather past 2 weeks in Provo, Utah, U.S.A.

16 °F


Feels Like: 16 °F
Forecast: 11 / 31 °F
Wind: No wind

Location: Provo Municipal

Current Time: Dec 1, 2015 at 6:21:18 AM

Latest Report: Dec 1, 2015 at 5:55 AM

Visibility: 10 mi

Pressure: 30.26 "Hg (25.29 "Hg at 1386m altitude)

Humidity: 67%

Dew point: 7 °F

Location of ProvoLocation

Historic Weather in Provo — Graph


Provo temperature yesterday

Maximum temperature yesterday: 30 °F (at 2:51 PM)
Minimum temperature yesterday: 16 °F (at 7:47 AM)
Average temperature yesterday: 22 °F

Past Weeks' High & Low Weather Summary

High54 °F (Nov 24, 12:49 PM)100% (Nov 20, 9:54 AM)30.51 "Hg (Nov 20, 9:54 AM)
Low14 °F (Dec 1, 3:55 AM)28% (Nov 25, 11:49 AM)29.51 "Hg (Nov 25, 12:50 PM)
Average30 °F68%30.09 "Hg
* Reported Nov 16 5:15 AM — Dec 1 5:15 AM, Provo, Weather by CustomWeather, © 2015

Note: Actual official high and low records may vary slightly from our data, if they occured in-between our weather recording intervals... More about our weather records


Provo weather history for previous 24 hours

Time TempWeatherWind HumidityBarometerVisibility
5:15 AM
Tue, Dec 1
16 °FClear.6 mph67%30.26 "Hg10 mi
4:55 AM16 °FClear.5 mph73%30.25 "Hg10 mi
4:35 AM16 °FClear.No wind73%30.25 "Hg10 mi
4:15 AM16 °FClear.6 mph73%30.24 "Hg10 mi
3:55 AM14 °FClear.7 mph79%30.25 "Hg10 mi
3:35 AM16 °FClear.6 mph67%30.24 "Hg10 mi
3:15 AM16 °FClear.6 mph73%30.24 "Hg10 mi
2:55 AM18 °FClear.3 mph73%30.24 "Hg10 mi
2:35 AM16 °FClear.3 mph73%30.24 "Hg10 mi
2:15 AM16 °FClear.5 mph79%30.23 "Hg10 mi
1:55 AM16 °FClear.5 mph73%30.23 "Hg10 mi
12:55 AM18 °FClear.No wind73%30.23 "Hg10 mi
12:35 AM19 °FClear.3 mph63%30.23 "Hg10 mi
11:55 PM
Mon, Nov 30
19 °FClear.No wind68%30.23 "Hg10 mi
11:15 PM19 °FClear.6 mph73%30.22 "Hg10 mi
10:55 PM19 °FClear.8 mph73%30.22 "Hg10 mi
10:35 PM21 °FClear.7 mph68%30.22 "Hg10 mi
9:55 PM19 °FPassing clouds.7 mph73%30.21 "Hg10 mi
9:15 PM21 °FClear.6 mph80%30.19 "Hg10 mi
8:47 PM23 °FPassing clouds.5 mph74%30.18 "Hg15 mi
7:47 PM23 °FPassing clouds.No wind68%30.17 "Hg15 mi
6:47 PM27 °FPassing clouds.No wind64%30.15 "Hg15 mi
5:55 PM25 °FPassing clouds.3 mph69%30.15 "Hg15 mi
4:47 PM28 °FPassing clouds.No wind59%30.14 "Hg15 mi
3:51 PM30 °FPassing clouds.No wind55%30.15 "Hg15 mi
2:51 PM30 °FPassing clouds.No wind55%30.15 "Hg15 mi
12:51 PM28 °FPassing clouds.No wind59%30.18 "Hg15 mi
11:51 AM28 °FPassing clouds.No wind59%30.21 "Hg15 mi
10:51 AM27 °FScattered clouds.No wind64%30.23 "Hg10 mi
9:51 AM25 °FScattered clouds.No wind69%30.22 "Hg10 mi
8:51 AM19 °FScattered clouds.No wind79%30.21 "Hg10 mi
7:47 AM16 °FScattered clouds.No wind79%30.21 "Hg10 mi
6:47 AM19 °FLight mixture of precip. Passing clouds.No wind73%30.19 "Hg10 mi
6:15 AM19 °FClear.No wind73%30.19 "Hg10 mi
Weather by CustomWeather, © 2015

See weather overviewHow to use our weather pages